IRIDIUM 24

Last updated on Wed Nov 29 2017 00:19:02 GMT+0000 (Coordinated Universal Time)

1 25105U 97082B 17332.53707886 .00000130 00000-0 35090-4 0 9994 2 25105 86.3913 166.0910 0012322 154.5830 205.5978 14.39890242 46507
UTC large
Height (km)
Speed (km/s)
/
Latitude / Longitude
Inclination (degrees)
Orbital Period (minutes)
Azimuth
Elevation
Range (km)
Doppler Factor

Next 0 passes for location: London (51.5072 / 0.1276)

Sorry there are no passes over London.